This is the latest recevied weather packets stored in our database for station/object N9ALD. If no packets are shown the sender has not sent any weather packets the latest 10 day(s).
| Time | Temp. | Humidity | Pressure | Rain* | Wind** | Luminosity | Snow |
|---|---|---|---|---|---|---|---|
| 1777519208 | 10° C | 66% | 1012.5 hPa | 0 mm | - | 0 W/m² | - |
| 1777518903 | 10° C | 62% | 1012.3 hPa | 0 mm | - | 0 W/m² | - |
| 1777518600 | 10° C | 62% | 1012.4 hPa | 0 mm | - | 0 W/m² | - |
| 1777518296 | 10° C | 61% | 1012.3 hPa | 0 mm | - | 0 W/m² | - |
| 1777517992 | 10° C | 62% | 1012.3 hPa | 0 mm | - | 0 W/m² | - |
| 1777517689 | 10.56° C | 61% | 1012.2 hPa | 0 mm | - | 0 W/m² | - |
| 1777517385 | 10.56° C | 61% | 1012.1 hPa | 0 mm | - | 0 W/m² | - |
| 1777517079 | 10.56° C | 59% | 1011.9 hPa | 0 mm | - | 0 W/m² | - |
| 1777516776 | 10.56° C | 62% | 1012 hPa | 0 mm | - | 0 W/m² | - |
| 1777516472 | 10° C | 63% | 1011.9 hPa | 0 mm | - | 0 W/m² | - |
| 1777516167 | 9.44° C | 67% | 1011.8 hPa | 0 mm | - | 0 W/m² | - |
| 1777515865 | 10° C | 70% | 1011.8 hPa | 0 mm | - | 0 W/m² | - |
| 1777515561 | 10° C | 69% | 1011.7 hPa | 0 mm | - | 0 W/m² | - |
| 1777515259 | 10° C | 66% | 1011.6 hPa | 0 mm | - | 0 W/m² | - |
| 1777514955 | 10° C | 67% | 1011.5 hPa | 0 mm | - | 0 W/m² | - |
| 1777514651 | 10.56° C | 67% | 1011.5 hPa | 0 mm | - | 0 W/m² | - |
| 1777514349 | 10.56° C | 65% | 1011.4 hPa | 0 mm | - | 0 W/m² | - |
| 1777514045 | 11.11° C | 63% | 1011.3 hPa | 0 mm | - | 0 W/m² | - |
| 1777513743 | 11.11° C | 63% | 1011.2 hPa | 0 mm | - | 0 W/m² | - |
| 1777513439 | 11.11° C | 62% | 1011.2 hPa | 0 mm | - | 0 W/m² | - |
| 1777513136 | 11.67° C | 61% | 1011.1 hPa | 0 mm | - | 0 W/m² | - |
| 1777512831 | 11.67° C | 61% | 1010.9 hPa | 0 mm | - | 0 W/m² | - |
| 1777512528 | 11.67° C | 62% | 1010.8 hPa | 0 mm | - | 0 W/m² | - |
| 1777512225 | 11.67° C | 61% | 1010.6 hPa | 0 mm | - | 0 W/m² | - |
| 1777511922 | 11.67° C | 60% | 1010.8 hPa | 0 mm | - | 0 W/m² | - |
* Rain latest hour (hover to see other rain measurements)
** Current wind speed in m/s (hover to see current wind gust speed)